Voltar ao catálogo

FENGYUN 1C DEB

AtivoSSO
NORAD 30012·DEBRIS·🇨🇳 China

Lançado May 10, 1999 de Taiyuan Satellite Launch Center

Loading…

Próximas Passagens (próximas 24 horas)

TLE

AtualizadoSource: Space-Track

Época: Sep 14, 2026, 03:49 UTC

1 30012U 99025MM  26257.15913132  .00000173  00000-0  17589-3 0  9992
2 30012  99.4268 317.6026 0136881 132.6317 253.7618 13.85916994993638

Acompanhe FENGYUN 1C DEB em tempo real com AllMySat

Download on the App Store